THORAD AGENA D DEB, 4818

Orbit data source: Space-Track

THORAD AGENA D DEB, 4818 is space debris in SSO originally from a launch on Wed, 08 Apr 1970 UTC launched from the Air Force Western Test Range (AFWTR). Debris objects in space refer to the collection of defunct objects orbiting the Earth. Examples of debris include non-operational satellites, rocket bodies, and fragments generated from explosions, collisions, or faulty payload assembly.

Loading next visibility...
Identifier
4818, 1970-025DZ
Orbit
SSO
Country
Flag of USUS
Related business
Manufacturer
Unknown
Mission
Spacecraft
Bus & Motor
Unknown
Mass
Unknown
Launch date (UTC)
1970-04-08 (56 years ago)
Launch vehicle
Unknown
Launch site
Air Force Western Test Range (AFWTR)
Object type
Payload
Rocket body
Debris
Shape & HBR
Unknown shape, 0.1 m
Radar Cross Section
Medium (>0.1 m² and <1 m²)

Expand to show TLE details & history
Last TLE update: 13 hours ago

TLE from 13 hours ago
0 THORAD AGENA D DEB
1 04818U 70025DZ  25292.31429044  .00000256  00000-0  70856-3 0  9994
2 04818  99.8895 216.4142 0269797  30.8989  82.6874 13.10182686648276
Epoch: 2025-10-19T07:32Z
TLE epoch observation values (Epoch: 2025-10-19T07:32:34.694Z)
Latitude
61.7778°
Longitude
-85.90679°
Altitude
1,212.292 km
Speed
7.264 km/s
True Right ascension
03h 41m 04s
True Declination
61° 38' 34"
Sunlit
Object was in full shadow at epoch
Visualization orbit readout
Latitude
Unknown
Longitude
Unknown
Altitude
Unknown
Speed
Unknown
Apparent Right ascension
Unknown
Apparent Declination
Unknown
Sunlit
N/A
Visualization observer readout
Local Sidereal Time
15:32:47
Azimuth
Unknown
Elevation
Unknown
Doppler factor
Unknown
Orbital elements
Apogee altitude
1,424.804 km
Perigee altitude
1,014.824 km
Semi-major axis
7,597.951 km
Eccentricity
0.02698
Inclination
99.8895°
RAAN
216.4142°
Arg. of periapsis
30.8989°
True anomaly
85.76564°
Mean anomaly
82.6874°
Eccentric anomaly
84.22538°
Mean motion
3.27717 °/min
Orbital period
109.85 mins
BSTAR
0.00070856
Loading maneuver chart data...
Computing Atmospheric mass density...

Documentation

Showing up to 5 results
|